Time,TemperatureF,DewpointF,PressureIn,WindDirection,WindDirectionDegrees,WindSpeedMPH,WindSpeedGustMPH,Humidity,HourlyPrecipIn,Conditions,Clouds,dailyrainin,SolarRadiationWatts/m^2,SoftwareType,DateUTC
2013-01-20 00:02:00,50.0,-7.0,-100.00,WNW,303,5.0,8.0,9,-99.99,,,0.00,0.000000,,2013-01-20 08:02:00,
2013-01-20 00:52:00,50.0,-7.0,-100.00,WNW,296,7.0,12.0,9,-99.99,,,0.00,0.000000,,2013-01-20 08:52:00,
2013-01-20 01:02:00,50.0,-7.0,-100.00,WNW,296,7.0,12.0,9,-99.99,,,0.00,0.000000,,2013-01-20 09:02:00,
2013-01-20 01:52:00,48.0,-6.0,-100.00,South,186,6.0,14.0,10,-99.99,,,0.00,0.000000,,2013-01-20 09:52:00,
2013-01-20 02:02:00,48.0,-6.0,-100.00,South,186,6.0,14.0,10,-99.99,,,0.00,0.000000,,2013-01-20 10:02:00,
2013-01-20 02:52:00,51.0,-6.0,-100.00,West,265,8.0,17.0,9,-99.99,,,-99.99,0.000000,,2013-01-20 10:52:00,
2013-01-20 03:53:00,48.0,-6.0,-100.00,West,275,8.0,18.0,10,-99.99,,,0.00,0.000000,,2013-01-20 11:53:00,
2013-01-20 04:02:00,48.0,-6.0,-100.00,West,275,8.0,18.0,10,-99.99,,,0.00,0.000000,,2013-01-20 12:02:00,
2013-01-20 04:53:00,48.0,-8.0,-100.00,NW,312,5.0,14.0,9,-99.99,,,0.00,0.000000,,2013-01-20 12:53:00,
2013-01-20 05:02:00,48.0,-8.0,-100.00,NW,312,5.0,14.0,9,-99.99,,,0.00,0.000000,,2013-01-20 13:02:00,
2013-01-20 05:53:00,47.0,-7.0,-100.00,SE,138,0.0,9.0,10,0.00,,,0.00,0.000000,,2013-01-20 13:53:00,
2013-01-20 06:02:00,47.0,-7.0,-100.00,SE,138,0.0,9.0,10,0.00,,,0.00,0.000000,,2013-01-20 14:02:00,
2013-01-20 06:53:00,44.0,-9.0,-100.00,West,261,0.0,4.0,10,0.00,,,0.00,0.000000,,2013-01-20 14:53:00,
2013-01-20 07:03:00,44.0,-9.0,-100.00,West,261,0.0,4.0,10,0.00,,,0.00,0.000000,,2013-01-20 15:03:00,
2013-01-20 07:12:00,44.0,-9.0,-100.00,West,261,0.0,4.0,10,0.00,,,0.00,0.000000,,2013-01-20 15:12:00,
2013-01-20 07:22:00,44.0,-9.0,-100.00,West,261,0.0,4.0,10,0.00,,,0.00,0.000000,,2013-01-20 15:22:00,
2013-01-20 07:53:00,47.0,-5.0,-100.00,South,186,0.0,4.0,11,0.00,,,0.00,13.000000,,2013-01-20 15:53:00,
2013-01-20 08:02:00,47.0,-5.0,-100.00,South,186,0.0,4.0,11,0.00,,,0.00,13.000000,,2013-01-20 16:02:00,
2013-01-20 08:53:00,51.0,-4.0,-100.00,SSE,159,1.0,10.0,10,0.00,,,0.00,209.000000,,2013-01-20 16:53:00,
2013-01-20 09:53:00,49.0,0.0,-100.00,SSW,206,5.0,11.0,13,-99.99,,,0.00,450.000000,,2013-01-20 17:53:00,
2013-01-20 10:02:00,49.0,0.0,-100.00,SSW,206,5.0,11.0,13,-99.99,,,0.00,450.000000,,2013-01-20 18:02:00,
2013-01-20 10:12:00,49.0,0.0,-100.00,SSW,206,5.0,11.0,13,-99.99,,,0.00,450.000000,,2013-01-20 18:12:00,
2013-01-20 10:23:00,49.0,0.0,-100.00,SSW,206,5.0,11.0,13,-99.99,,,0.00,450.000000,,2013-01-20 18:23:00,
2013-01-20 10:53:00,51.0,-2.0,-100.00,SSW,197,5.0,14.0,11,0.00,,,0.00,650.000000,,2013-01-20 18:53:00,
2013-01-20 11:02:00,51.0,-2.0,-100.00,SSW,197,5.0,14.0,11,0.00,,,0.00,650.000000,,2013-01-20 19:02:00,
2013-01-20 11:12:00,51.0,-2.0,-100.00,SSW,197,5.0,14.0,11,0.00,,,0.00,650.000000,,2013-01-20 19:12:00,
2013-01-20 11:22:00,51.0,-2.0,-100.00,SSW,197,5.0,14.0,11,0.00,,,0.00,650.000000,,2013-01-20 19:22:00,
2013-01-20 11:53:00,56.0,-2.0,-100.00,SSW,193,3.0,14.0,9,0.00,,,0.00,783.000000,,2013-01-20 19:53:00,
2013-01-20 12:02:00,56.0,-2.0,-100.00,SSW,193,3.0,14.0,9,0.00,,,0.00,783.000000,,2013-01-20 20:02:00,
2013-01-20 12:53:00,57.0,-4.0,-100.00,South,179,3.0,12.0,8,0.00,,,0.00,835.000000,,2013-01-20 20:53:00,
2013-01-20 13:03:00,57.0,-4.0,-100.00,South,179,3.0,12.0,8,0.00,,,0.00,835.000000,,2013-01-20 21:03:00,
2013-01-20 13:12:00,57.0,-4.0,-100.00,South,179,3.0,12.0,8,0.00,,,0.00,835.000000,,2013-01-20 21:12:00,
2013-01-20 13:22:00,57.0,-4.0,-100.00,South,179,3.0,12.0,8,0.00,,,0.00,835.000000,,2013-01-20 21:22:00,
2013-01-20 13:53:00,57.0,-4.0,-100.00,SE,138,2.0,10.0,8,0.00,,,0.00,805.000000,,2013-01-20 21:53:00,
2013-01-20 14:03:00,57.0,-4.0,-100.00,SE,138,2.0,10.0,8,0.00,,,0.00,805.000000,,2013-01-20 22:03:00,
2013-01-20 14:12:00,57.0,-4.0,-100.00,SE,138,2.0,10.0,8,0.00,,,0.00,805.000000,,2013-01-20 22:12:00,
2013-01-20 14:22:00,57.0,-4.0,-100.00,SE,138,2.0,10.0,8,0.00,,,0.00,805.000000,,2013-01-20 22:22:00,
2013-01-20 14:53:00,61.0,-1.0,-100.00,East,81,1.0,7.0,8,0.00,,,0.00,690.000000,,2013-01-20 22:53:00,
2013-01-20 15:03:00,61.0,-1.0,-100.00,East,81,1.0,7.0,8,0.00,,,0.00,690.000000,,2013-01-20 23:03:00,
2013-01-20 15:12:00,61.0,-1.0,-100.00,East,81,1.0,7.0,8,0.00,,,0.00,690.000000,,2013-01-20 23:12:00,
2013-01-20 15:22:00,61.0,-1.0,-100.00,East,81,1.0,7.0,8,0.00,,,0.00,690.000000,,2013-01-20 23:22:00,
2013-01-20 15:53:00,60.0,-1.0,-100.00,SSW,192,0.0,11.0,8,0.00,,,0.00,504.000000,,2013-01-20 23:53:00,
2013-01-20 16:02:00,60.0,-1.0,-100.00,SSW,192,0.0,11.0,8,0.00,,,0.00,504.000000,,2013-01-21 00:02:00,
2013-01-20 16:12:00,60.0,-1.0,-100.00,SSW,192,0.0,11.0,8,0.00,,,0.00,504.000000,,2013-01-21 00:12:00,
2013-01-20 16:22:00,60.0,-1.0,-100.00,SSW,192,0.0,11.0,8,0.00,,,0.00,504.000000,,2013-01-21 00:22:00,
2013-01-20 16:53:00,55.0,-3.0,-100.00,SW,235,3.0,9.0,9,0.00,,,0.00,231.000000,,2013-01-21 00:53:00,
2013-01-20 17:02:00,55.0,-3.0,-100.00,SW,235,3.0,9.0,9,0.00,,,0.00,231.000000,,2013-01-21 01:02:00,
2013-01-20 17:12:00,55.0,-3.0,-100.00,SW,235,3.0,9.0,9,0.00,,,0.00,231.000000,,2013-01-21 01:12:00,
2013-01-20 17:22:00,55.0,-3.0,-100.00,SW,235,3.0,9.0,9,0.00,,,0.00,231.000000,,2013-01-21 01:22:00,
2013-01-20 17:53:00,52.0,-5.0,-100.00,SW,227,5.0,9.0,9,0.00,,,0.00,10.000000,,2013-01-21 01:53:00,
2013-01-20 18:03:00,52.0,-5.0,-100.00,SW,227,5.0,9.0,9,0.00,,,0.00,10.000000,,2013-01-21 02:03:00,
2013-01-20 18:12:00,52.0,-5.0,-100.00,SW,227,5.0,9.0,9,0.00,,,0.00,10.000000,,2013-01-21 02:12:00,
2013-01-20 18:22:00,52.0,-5.0,-100.00,SW,227,5.0,9.0,9,0.00,,,0.00,10.000000,,2013-01-21 02:22:00,
2013-01-20 18:53:00,54.0,-4.0,-100.00,WSW,253,7.0,13.0,9,0.00,,,0.00,0.000000,,2013-01-21 02:53:00,
2013-01-20 19:02:00,54.0,-4.0,-100.00,WSW,253,7.0,13.0,9,0.00,,,0.00,0.000000,,2013-01-21 03:02:00,
2013-01-20 19:12:00,54.0,-4.0,-100.00,WSW,253,7.0,13.0,9,0.00,,,0.00,0.000000,,2013-01-21 03:12:00,
2013-01-20 19:22:00,54.0,-4.0,-100.00,WSW,253,7.0,13.0,9,0.00,,,0.00,0.000000,,2013-01-21 03:22:00,
2013-01-20 19:53:00,52.0,-3.0,-100.00,SW,230,5.0,12.0,10,0.00,,,0.00,0.000000,,2013-01-21 03:53:00,
2013-01-20 20:02:00,52.0,-3.0,-100.00,SW,230,5.0,12.0,10,0.00,,,0.00,0.000000,,2013-01-21 04:02:00,
2013-01-20 20:12:00,52.0,-3.0,-100.00,SW,230,5.0,12.0,10,0.00,,,0.00,0.000000,,2013-01-21 04:12:00,
2013-01-20 20:22:00,52.0,-3.0,-100.00,SW,230,5.0,12.0,10,0.00,,,0.00,0.000000,,2013-01-21 04:22:00,
2013-01-20 20:53:00,53.0,-4.0,-100.00,WSW,251,7.0,17.0,9,0.00,,,0.00,0.000000,,2013-01-21 04:53:00,
2013-01-20 21:03:00,53.0,-4.0,-100.00,WSW,251,7.0,17.0,9,0.00,,,0.00,0.000000,,2013-01-21 05:03:00,
2013-01-20 21:22:00,53.0,-4.0,-100.00,WSW,251,7.0,17.0,9,0.00,,,0.00,0.000000,,2013-01-21 05:22:00,
2013-01-20 21:53:00,51.0,-6.0,-100.00,SSW,207,6.0,18.0,9,0.00,,,0.00,0.000000,,2013-01-21 05:53:00,
2013-01-20 22:02:00,51.0,-6.0,-100.00,SSW,207,6.0,18.0,9,0.00,,,0.00,0.000000,,2013-01-21 06:02:00,
2013-01-20 22:12:00,51.0,-6.0,-100.00,SSW,207,6.0,18.0,9,0.00,,,0.00,0.000000,,2013-01-21 06:12:00,
2013-01-20 22:22:00,51.0,-6.0,-100.00,SSW,207,6.0,18.0,9,0.00,,,0.00,0.000000,,2013-01-21 06:22:00,
2013-01-20 22:53:00,50.0,-7.0,-100.00,SW,215,8.0,16.0,9,0.00,,,0.00,0.000000,,2013-01-21 06:53:00,
2013-01-20 23:02:00,50.0,-7.0,-100.00,SW,215,8.0,16.0,9,0.00,,,0.00,0.000000,,2013-01-21 07:02:00,
2013-01-20 23:53:00,52.0,-5.0,-100.00,WSW,237,6.0,17.0,9,0.00,,,0.00,0.000000,,2013-01-21 07:53:00,